Mount Holly, NJ

12:25 PM EST on December 05, 2019 (GMT -0500)
South Jersey Regional

Weather History for KVAY - September, 2019

Change the Weather History Date:

Friday, September 20, 2019

  Actual Average (WUND) Record (WUND)
Temperature  
Mean Temperature 61 °F -  
Max Temperature 78 °F - - (-1)
Min Temperature 45 °F - - (-1)
Degree Days  
Heating Degree Days 4    
Growing Degree Days 11 (Base 50)    
Moisture  
Dew Point 49 °F    
Average Humidity 73    
Maximum Humidity 97    
Minimum Humidity 36    
Precipitation  
Precipitation 0.00 in - - ()
Sea Level Pressure  
Sea Level Pressure 30.25 in    
Wind  
Wind Speed 2 mph (WSW)    
Max Wind Speed 8 mph    
Max Gust Speed -    
Visibility 9 miles    
Events      
Averages and records for this station are not official NWS values.
T = Trace of Precipitation, MM = Missing Value Source: NWS Daily Summary

Daily Weather History Graph

Daily Weather History Graph

Search for Another Location

Airport or City:

Astronomy

Sep. 20, 2019 Rise Set
Actual Time 6:44 AM EDT 7:00 PM EDT
Civil Twilight 6:17 AM EDT 7:27 PM EDT
Nautical Twilight 5:46 AM EDT 7:58 PM EDT
Astronomical Twilight 5:13 AM EDT 8:31 PM EDT
Moon 10:48 PM EDT (9/20) 12:46 PM EDT (9/20)
Length of Visible Light 13h 09m
Length of Day
12h 15m
Waning Gibbous, 65% of the Moon is Illuminated
Sep 20
Waning Gibbous
Sep 21
Last Quarter
Sep 28
New
Oct 5
First Quarter
Oct 13
Full

Hourly Weather History & Observations

Time (EDT) Temp. Dew Point Humidity Pressure Visibility Wind Dir Wind Speed Gust Speed Precip Events Conditions
12:54 AM 50.0 °F 48.0 °F 93% 30.29 in 10.0 mi Calm Calm - N/A   Clear
1:54 AM 48.0 °F 46.0 °F 93% 30.28 in 10.0 mi Calm Calm - N/A   Clear
2:54 AM 46.9 °F 45.0 °F 93% 30.28 in 10.0 mi Calm Calm - N/A   Clear
3:28 AM 45.0 °F 44.1 °F 97% 30.28 in 1.8 mi Calm Calm - N/A   Clear
3:40 AM 46.9 °F 44.1 °F 90% 30.28 in 10.0 mi Calm Calm - N/A   Clear
3:54 AM 46.0 °F 44.1 °F 93% 30.27 in 10.0 mi Calm Calm - N/A   Clear
4:54 AM 46.0 °F 44.1 °F 93% 30.28 in 10.0 mi Calm Calm - N/A   Clear
5:54 AM 46.9 °F 45.0 °F 93% 30.29 in 10.0 mi Calm Calm - N/A   Clear
6:39 AM 46.0 °F 44.1 °F 93% 30.29 in 8.0 mi Calm Calm - N/A   Partly Cloudy
6:54 AM 46.0 °F 43.0 °F 89% 30.30 in 4.0 mi Calm Calm - N/A   Clear
7:54 AM 52.0 °F 51.1 °F 97% 30.31 in 10.0 mi Calm Calm - N/A   Clear
8:54 AM 60.1 °F 55.9 °F 86% 30.32 in 10.0 mi WSW 3.5 mph - N/A   Clear
9:54 AM 64.0 °F 54.0 °F 70% 30.31 in 10.0 mi West 6.9 mph - N/A   Clear
10:54 AM 68.0 °F 52.0 °F 56% 30.30 in 10.0 mi SW 6.9 mph - N/A   Clear
11:54 AM 70.0 °F 51.1 °F 51% 30.27 in 10.0 mi WSW 8.1 mph - N/A   Clear
12:54 PM 73.0 °F 50.0 °F 44% 30.25 in 10.0 mi Variable 5.8 mph - N/A   Clear
1:54 PM 73.9 °F 48.0 °F 40% 30.22 in 10.0 mi WSW 6.9 mph - N/A   Clear
2:54 PM 75.0 °F 48.0 °F 38% 30.20 in 10.0 mi WSW 8.1 mph - N/A   Clear
3:54 PM 75.9 °F 48.0 °F 37% 30.19 in 10.0 mi SW 8.1 mph - N/A   Clear
4:54 PM 77.0 °F 48.0 °F 36% 30.18 in 10.0 mi WSW 5.8 mph - N/A   Clear
5:54 PM 75.9 °F 48.9 °F 38% 30.18 in 10.0 mi WSW 4.6 mph - N/A   Clear
6:54 PM 69.1 °F 53.1 °F 57% 30.19 in 10.0 mi Calm Calm - N/A   Clear
7:54 PM 62.1 °F 52.0 °F 70% 30.20 in 10.0 mi Calm Calm - N/A   Clear
8:54 PM 61.0 °F 50.0 °F 67% 30.22 in 10.0 mi Calm Calm - N/A   Clear
9:54 PM 57.9 °F 50.0 °F 75% 30.22 in 10.0 mi Calm Calm - N/A   Clear
10:54 PM 55.9 °F 51.1 °F 84% 30.22 in 10.0 mi Calm Calm - N/A   Clear
11:54 PM 55.0 °F 51.1 °F 86% 30.21 in 10.0 mi Calm Calm - N/A   Clear